Location: Tierra del Sol
(32.6128°N, 116.3319°W)
Time: 19:37:46
(UTC-07:00)

Hubble Space Telescope - Pass Details

Date: 12 October 2017
Orbit: 537 x 541 km, 28.5° (Epoch: 22 October)

Event Time Altitude Azimuth Distance (km) Brightness Sun altitude
Exits shadow 05:00:18 17° 173° (S) 1,410 2.9 -23.3°
Drops below altitude 10° 05:01:54 10° 153° (SSE) 1,784 3.7 -23.0°
Sets 05:04:37 0° 136° (SE) 2,674 4.9 -22.4°
